1334620830499,55.8888
1334620890499,55.7527
1334620950499,56.0352
1334621010499,55.8681
1334621070499,55.8606
1334621130499,55.8933
1334621190499,55.8620
1334621250499,55.9222
1334621310499,55.8727
1334621370499,55.8254
1334621430499,56.0143
1334621490499,55.8696
1334621550499,56.0009
1334621610499,55.7854
1334621670499,55.8839
1334621730499,55.9290
1334621790499,56.0226
1334621850499,55.9928
1334621910499,55.8407
1334621970499,55.8880
1334622030499,55.9177
1334622090499,55.9362
1334622150499,55.8721
1334622210499,55.9739
1334622270499,55.7986
1334622330499,56.0959
1334622390499,55.9214
1334622450499,55.9364
1334622510499,55.8636
1334622570499,56.1353
1334622630499,55.9708
1334622690499,55.9673
1334622750499,55.9297
1334622810499,55.8722
1334622870499,55.9919
1334622930499,55.9918
1334622990499,55.8366
1334623050499,55.9510
1334623110499,56.1141
1334623170499,55.8362
1334623230499,55.8383
1334623290499,55.8679
1334623350499,55.7688
1334623410499,55.9150
1334623470499,55.8377
1334623530499,55.9724
1334623590499,55.8684
1334623650499,56.0199
1334623710499,55.9697
1334623770499,55.8017
1334623830499,55.9106
1334623890499,56.0511
1334623950499,55.7218
1334624010499,55.8970
1334624070499,55.9061
1334624130499,55.6015
1334624190499,55.9851
1334624250499,55.9464
1334624310499,55.8919
1334624370499,55.9428
1334624430510,55.9779
1334624490510,55.8754
1334624550510,55.9396
1334624610510,56.1786
1334624670510,56.0298
1334624730510,55.8631
1334624790510,56.0627
1334624850510,56.0709
1334624910510,56.0911
1334624970510,56.2461
1334625030510,55.9922
1334625090510,56.0634
1334625150510,56.1156
1334625210510,56.0479
1334625270510,56.1793
1334625330510,56.1167
1334625390510,56.0633
1334625450510,56.1227
1334625510510,56.1604
1334625570510,56.0533
1334625630510,55.9708
1334625690510,56.2182
1334625750510,56.2116
1334625810510,56.1129
1334625870510,56.1780
1334625930510,56.2222
1334625990510,56.1033
1334626050510,56.3685
1334626110510,56.2013
1334626170510,56.3930
1334626230510,56.2493
1334626290510,56.2801
1334626350510,56.2702
1334626410510,56.1371
1334626470510,56.3819
1334626530510,56.1659
1334626590510,56.1269
1334626650510,56.1608
1334626710510,56.1558
1334626770510,56.2915
1334626830510,56.3853
1334626890510,56.1788
1334626950510,56.2609
1334627010510,56.2377
1334627070510,56.1707
1334627130510,56.3595
1334627190510,56.2529
1334627250510,56.3403
1334627310510,56.4249
1334627370510,56.2407
1334627430510,56.3401
1334627490510,56.3383
1334627550510,56.3497
1334627610510,56.2579
1334627670510,56.2976
1334627730510,56.4205
1334627790510,56.2742
1334627850510,56.4128
1334627910510,56.4437
1334627970510,56.5749
1334628030521,56.2410
1334628090521,56.5259
1334628150521,56.5312
1334628210521,56.3968
1334628270522,56.2942
1334628330522,56.3410
1334628390522,56.5454
1334628450522,56.5201
1334628510522,56.5493
1334628570522,56.4753
1334628630522,56.3777
1334628690521,56.5475
1334628750521,56.3954
1334628810521,56.5845
1334628870521,56.3634
1334628930521,56.4064
1334628990521,56.5667
1334629050521,56.5683
1334629110521,56.4484
1334629170521,56.5176
1334629230521,56.4310
1334629290522,56.4120
1334629350521,56.6275
1334629410521,56.5656
1334629470521,56.4982
1334629530521,56.5785
1334629590521,56.5031
1334629650522,56.7371
1334629710522,56.5919
1334629770522,56.4579
1334629830522,56.5093
1334629890522,56.5346
1334629950522,56.4635
1334630010521,56.6813
1334630070521,56.6373
1334630130521,56.5216
1334630190521,56.5644
1334630250521,56.6084
1334630310521,56.6386
1334630370521,56.4233
1334630430521,56.5466
1334630490521,56.4429
1334630550521,56.6319
1334630610521,56.7080
1334630670521,56.4997
1334630730521,56.5777
1334630790521,56.5558
1334630850521,56.5731
1334630910521,56.5732
1334630970522,56.8433
1334631030522,56.4961
1334631090522,56.5344
1334631150522,56.6461
1334631210522,56.4047
1334631270522,56.4858
1334631330522,56.5121
1334631390521,56.4868
1334631450521,56.5206
1334631510521,56.5578
1334631570521,56.6487
1334631630532,56.5514
1334631690532,56.5899
1334631750532,56.4371
1334631810532,56.4910
1334631870532,56.4663
1334631930532,56.4192
1334631990532,56.4785
1334632050532,56.4390
1334632110532,56.5426
1334632170532,56.5648
1334632230532,56.4613
1334632290532,56.2419
1334632830532,56.4489
1334632890532,56.3735
1334632950532,56.3125
1334633010532,56.3097
1334633070532,56.3576
1334633130532,56.3027
1334633190532,56.3225
1334633250532,56.2221
1334633310532,56.3233
1334633370532,56.1653
1334633430532,56.2013
1334633490532,56.2989
1334633550532,56.3490
1334633610532,56.4233
1334633670532,56.3953
1334633730532,56.2882
1334633790532,56.4282
1334633850532,56.3086
1334633910532,56.3244
1334633970532,56.1611
1334634030532,56.2490
1334634090532,56.3899
1334634150532,56.2666
1334634210532,56.4538
1334634270532,56.3067
1334634330532,56.2740
1334634390532,56.0497
1334634450532,56.1845
1334634510532,56.2061
1334634570532,56.1678
1334634630532,55.9979
1334634690532,56.1687
1334634750532,56.2522
1334634810532,56.0380
1334634870532,56.1579
1334634930532,56.2987
1334634990532,56.0858
1334635050532,55.9753
1334635110532,56.1775
1334635170532,56.1202
1334635230543,56.3554
1334635290543,56.0306
1334635350543,56.0901
1334635410543,56.1541
1334635470543,56.0762
1334635530543,56.1434
1334635590543,56.0633
1334635650543,56.0775
1334635710543,56.2880
1334635770543,56.0805
1334635830543,56.0470
1334635890543,56.3159
1334635950543,56.2104
1334636010543,56.1550
1334636070543,55.9744
1334636130543,55.9881
1334636190543,55.9336
1334636250543,55.9270
1334636310543,56.1363
1334636370543,56.0297
1334636430543,56.0164
1334636490543,56.0353
1334636550543,56.0140
1334636610543,56.0914
1334636670543,56.2223
1334636730543,56.0771
1334636790543,56.0951
1334636850543,56.0289
1334636910543,56.1187
1334636970543,56.1861
1334637030543,56.0324
1334637090543,56.0781
1334637150543,55.9002
1334637210543,56.1059
1334637270543,56.2352
1334637330543,56.0772
1334637390543,56.0207
1334637450543,56.1123
1334637510543,56.1408
1334637570543,56.0773
1334637630543,56.0404
1334637690543,56.1163
1334637750543,56.1009
1334637810543,56.1532
1334637870543,56.0378
1334637930543,55.9739
1334637990543,56.1066
1334638050543,56.0710
1334638110543,56.1962
1334638170543,56.1611
1334638230543,55.9413
1334638290543,56.2150
1334638350543,56.1668
1334638410543,56.0341
1334638470543,56.1226
1334638530543,56.1949
1334638590543,56.1724
1334638650543,56.3552
1334638710543,56.0796
1334638770543,56.4067
1334638830554,56.1192
1334638890554,56.3002
1334638950554,56.2833
1334639010554,56.2901
1334639070554,56.2966
1334639130554,56.2489
1334639190554,56.3274
1334639250554,56.3391
1334639310554,56.2853
1334639370554,56.2018
1334639430554,56.3682
1334639490554,56.3108
1334639550554,56.2483
1334639610554,56.3318
1334639670554,56.1047
1334639730554,56.3150
1334639790554,56.2994
1334639850554,56.2724
1334639910554,56.2154
1334639970554,56.2749
1334640030554,56.4162
1334640090554,56.2381
1334640150554,56.2396
1334640210554,56.2070
1334640270554,56.2698
1334640330554,56.3042
1334640390554,56.2736
1334640450554,56.3180
1334640510554,56.3428
1334640570554,56.4303
1334640630554,56.2473
1334640690554,56.2931
1334640750554,56.1742
1334640810554,56.2811
1334640870554,56.4229
1334640930554,56.2648
1334640990554,56.3012
1334641050554,56.1244
1334641110554,56.2805
1334641170554,56.2122
1334641230554,56.2947
1334641290554,56.3181
1334641350554,56.2285
1334641410554,56.2939
1334641470554,56.3080
1334641530554,56.1373
1334641590554,56.2600
1334641650554,56.1825
1334641710554,56.2251
1334641770554,56.2168
1334641830554,56.0787
1334641890554,55.9250
1334641950554,56.3858
1334642010554,56.1718
1334642070554,56.0774
1334642130554,56.2183
1334642190554,56.0021
1334642250554,56.2002
1334642310554,56.1056
1334642370554,56.0458
1334642430564,56.0727
1334642490564,56.1651
1334642550565,55.9763
1334642610565,56.1578
1334642670565,56.0882
1334642730565,56.0261
1334642790565,56.1605
1334642850565,56.2422
1334642910565,56.1282
1334642970565,56.1089
1334643030564,56.1903
1334643090564,56.2129
1334643150564,55.9768
1334643210564,56.0799
1334643270564,56.0859
1334643330564,56.0767
1334643390564,56.0033
1334643450564,56.1602
1334643510565,56.1342
1334643570565,56.0881
1334643630565,56.1065
1334643690564,56.0468
1334643750564,56.1007
1334643810564,56.0186
1334643870565,55.9046
1334643930565,55.9091
1334643990565,55.9210
1334644050565,55.8224
1334644110565,55.9947
1334644170565,55.9081
1334644230565,55.9126
1334644290565,56.0433
1334644350564,55.9492
1334644410564,55.9214
1334644470564,55.8132
1334644530564,55.8524
1334644590564,55.9020
1334644650564,55.9859
1334644710564,55.8626
1334644770564,55.9525
1334644830564,56.0358
1334644890565,55.8155
1334644950565,55.8788
1334645010564,55.8277
1334645070564,55.9808
1334645130564,55.7565
1334645190564,55.9866
1334645250565,56.0005
1334645310565,55.9289
1334645370565,56.0193
1334645430565,55.9441
1334645490565,56.0014
1334645550565,55.9915
1334645610565,55.8305
1334645670565,55.9135
1334645730564,55.9113
1334645790564,55.9171
1334645850564,55.9784
1334645910564,55.8916
1334645970564,55.9648
1334646030575,55.8687
1334646090575,56.0204
1334646150575,55.7839
1334646210575,55.9570
1334646270575,55.9387
1334646330575,55.8805
1334646390575,55.7499
1334646450575,55.8148
1334646510575,55.9074
1334646570575,55.9604
1334646630575,55.8359
1334646690575,55.8874
1334646750575,55.9393
1334646810575,55.8538
1334646870575,55.9101
1334646930575,55.8427
1334646990575,55.9407
1334647050575,56.0280
1334647110575,55.8869
1334647170575,55.9951
1334647230575,55.9667
1334647290575,56.0616
1334647350575,55.8283
1334647410575,56.2746
1334647470575,55.9501
1334647530575,56.0605
1334647590575,55.8943
1334647650575,56.0019
1334647710575,56.1925
1334647770575,56.0068
1334647830575,56.0697
1334647890575,56.0311
1334647950575,56.1469
1334648010575,56.1563
1334648070575,56.1410
1334648130575,56.2055
1334648190575,56.2431
1334648250575,56.1294
1334648310575,56.1986
1334648370575,56.3464
1334648430575,56.3591
1334648490575,56.4530
1334648550575,56.3580
1334648610575,56.3115
1334648670575,56.3905
1334648730575,56.2899
1334648790575,56.3409
1334648850575,56.4176
1334648910575,56.2474
1334648970575,56.4583
1334649030575,56.3475
1334649090575,56.3497
1334649150575,56.3832
1334649210575,56.2493
1334649270575,56.4251
1334649330575,56.3353
1334649390575,56.2672
1334649450575,56.3724
1334649510575,56.4067
1334649570575,56.4894
1334649630586,56.4067
1334649690586,56.5588
1334649750586,56.4096
1334649810586,56.5333
1334649870586,56.5373
1334649930586,56.5513
1334649990586,56.4716
1334650050586,56.2596
1334650110586,56.4410
1334650170586,56.5186
1334650230586,56.4531
1334650290586,56.2479
1334650350586,56.4827
1334650410586,56.5530
1334650470586,56.4572
1334650530586,56.5475
1334650590586,56.2439
1334650650586,56.3646
1334650710586,56.2973
1334650770586,56.3995
1334650830586,56.5373
1334650890586,56.3792
1334650950586,56.5071
1334651010586,56.3901
1334651070586,56.4137
1334651130586,56.4567
1334651190586,56.3462
1334651250586,56.3157
1334651310586,56.3580
1334651370586,56.4548
1334651430586,56.2997
1334651490586,56.3444
1334651550586,56.3118
1334651610586,56.2233
1334651670586,56.3376
1334651730586,56.3169
1334651790586,56.2941
1334651850586,56.3177
1334651910586,56.3777
1334651970586,56.3211
1334652030586,56.2145
1334652090586,56.4107
1334652150586,56.3263
1334652210586,56.4874
1334652270586,56.4333
1334652330586,56.1268
1334652390586,56.4394
1334652450586,56.2245
1334652510586,56.3040
1334652570586,56.4153
1334652630586,56.2483
1334652690586,56.4289
1334652750586,56.1573
1334652810586,56.3349
1334652870586,56.2853
1334652930586,56.3605
1334652990586,56.3327
1334653050586,56.3396
1334653110586,56.1891
1334653170586,56.3171
1334653230596,56.4182
1334653290596,56.2248
1334653350596,56.3384
1334653410596,56.3641
1334653470596,56.5344
1334653530596,56.3517
1334653590596,56.2940
1334653650596,56.2874
1334653710596,56.2094
1334653770596,56.2896
1334653830596,56.3206
1334653890596,56.3018
1334653950596,56.3147
1334654010596,56.3633
1334654070596,56.1349
1334654130596,56.2704
1334654190596,56.1832
1334654250596,56.2954
1334654310596,56.1609
1334654370596,56.3656
1334654430596,56.1344
1334654490596,56.2786
1334654550596,56.3498
1334654610596,56.2950
1334654670596,56.2741
1334654730596,56.3781
1334654790596,56.1030
1334654850596,56.1614
1334654910596,56.1781
1334654970596,56.3640
1334655030596,56.2913
1334655090596,56.1029
1334655150596,56.1843
1334655210596,56.4034
1334655270596,56.0666
1334655330596,56.1378
1334655390596,56.2330
1334655450596,56.2414
1334655510596,56.2219
1334655570596,56.3467
1334655630596,56.0420
1334655690596,56.0829
1334655750596,56.2307
1334655810596,56.1639
1334655870596,56.1360
1334655930596,56.1617
1334655990596,56.1319
1334656050596,56.2194
1334656110596,55.9390
1334656170596,56.0823
1334656230596,56.0433
1334656290596,56.0874
1334656350596,56.0282
1334656410596,55.9788
1334656470596,55.9415
1334656530596,55.8684
1334656590596,55.8288
1334656650596,55.7193
1334656710596,55.9523
1334656770596,55.7119
1334656830607,55.8929
1334656890607,55.8897
1334656950607,55.8276
1334657010607,55.8658
1334657070607,55.8315
1334657130607,55.8584
1334657190607,55.9496
1334657250607,55.8128
1334657310607,55.8355
1334657370607,55.9186
1334657430607,55.7328
1334657490607,55.6810
1334657550607,55.7627
1334657610607,55.7611
1334657670607,55.7566
1334657730607,55.7428
1334657790607,55.6636
1334657850607,55.7806
1334657910607,55.6154
1334657970607,55.7085
1334658030607,55.8308
1334658090607,55.8345
1334658150607,55.6841
1334658210607,55.6999
1334658270607,55.5032
1334658330607,55.7129
1334658390607,55.6969
1334658450607,55.8004
1334658510607,55.7046
1334658570607,55.8047
1334658630607,55.8274
1334658690607,55.8328
1334658750607,55.7842
1334658810607,55.8650
1334658870607,55.7682
1334658930607,55.7712
1334658990607,55.7043
1334659050607,55.6305
1334659110607,55.9311
1334659170607,55.8016
1334659230607,55.8075
1334659290607,55.8963
1334659350607,55.8595
1334659410607,55.8864
1334659470607,55.9461
1334659530607,55.8611
1334659590607,55.8490
1334659650607,55.8726
1334659710607,56.1208
1334659770607,55.9161
1334659830607,55.8332
1334659890607,55.7617
1334659950607,56.0891
1334660010607,55.8446
1334660070607,55.8427
1334660130607,56.0831
1334660190607,56.0849
1334660250607,55.9690
1334660310607,55.9417
1334660370607,55.8939
1334660430617,55.8600
1334660490618,56.2002
1334660550618,56.0480
1334660610618,56.0656
1334660670618,56.0492
1334660730618,56.2289
1334660790618,56.0291
1334660850618,56.1873
1334660910618,55.9805
1334660970618,56.2549
1334661030617,56.1204
1334661090617,56.1785
1334661150617,56.1651
1334661210617,56.0844
1334661270617,56.0876
1334661330617,56.0980
1334661390617,56.1941
1334661450617,55.9805
1334661510618,56.2998
1334661570618,56.1237
1334661630618,56.1086
1334661690617,56.1477
1334661750617,56.2392
1334661810617,56.2546
1334661870618,56.1810
1334661930618,56.2502
1334661990618,56.0731
1334662050618,56.2246
1334662110618,56.2272
1334662170618,56.2128
1334662230618,56.3074
1334662290618,56.2273
1334662350617,56.2579
1334662410617,56.2221
1334662470617,56.3614
1334662530617,56.3043
1334662590617,56.2594
1334662650617,56.3827
1334662710617,56.3618
1334662770617,56.3491
1334662830618,56.0621
1334662890618,56.1898
1334662950618,56.4572
1334663010617,56.1695
1334663070617,56.1502
1334663130617,56.1984
1334663190618,56.3219
1334663250618,56.1747
1334663310618,56.2687
1334663370618,56.2383
1334663430618,56.1413
1334663490618,56.1978
1334663550618,56.1237
1334663610618,56.3044
1334663670618,56.0881
1334663730617,56.3678
1334663790617,56.3002
1334663850617,56.2851
1334663910617,56.1517
1334663970617,56.2728
1334664030628,56.2002
1334664090628,56.1134
1334664150628,56.2385
1334664210628,56.1859
1334664270628,56.1330
1334664330628,56.2438
1334664390628,56.1716
1334664450628,56.2100
1334664510628,56.1371
1334664570628,56.0603
1334664630628,56.1587
1334664690628,56.1913
1334664750628,56.2675
1334664810628,56.2539
1334664870628,56.1017
1334664930628,56.0968
1334664990628,56.1201
1334665050628,56.1024
1334665110628,56.3218
1334665170628,56.0665
1334665230628,56.0163
1334665290628,56.2394
1334665350628,56.0778
1334665410628,56.2141
1334665470628,56.0285
1334665530628,56.3622
1334665590628,56.0966
1334665650628,56.1976
1334665710628,55.9977
1334665770628,56.1866
1334665830628,56.1331
1334665890628,56.2697
1334665950628,56.2192
1334666010628,56.1267
1334666070628,56.3259
1334666130628,56.2269
1334666190628,56.2235
1334666250628,56.1496
1334666310628,56.1989
1334666370628,56.2140
1334666430628,56.2845
1334666490628,56.4064
1334666550628,56.0952
1334666610628,56.3476
1334666670628,56.2968
1334666730628,56.4172
1334666790628,56.3143
1334666850628,56.1797
1334666910628,56.3514
1334666970628,56.2297
1334667030628,56.5170
1334667090628,56.3931
1334667150628,56.4211
1334667210628,56.3191
1334667270628,56.4108
1334667330628,56.3426
1334667390628,56.2466
1334667450628,56.3683
1334667510628,56.3859
1334667570628,56.3809
1334667630638,56.3332
1334667690638,56.3736
1334667750638,56.2564
1334667810638,56.4249
1334667870638,56.4754
1334667930638,56.5188
1334667990638,56.4976
1334668050638,56.3411
1334668110638,56.3900
1334668170638,56.3056
1334668230638,56.4011
1334668290638,56.5039
1334668350638,56.4082
1334668410638,56.5464
1334668470638,56.3051
1334668530638,56.2371
1334668590638,56.4106
1334668650638,56.5441
1334668710638,56.4456
1334668770638,56.2185
1334668830638,56.3794
1334668890638,56.3787
1334668950638,56.3493
1334669010638,56.4027
1334669070638,56.3913
1334669130638,56.4331
1334669190638,56.3803
1334669250638,56.4656
1334669310638,56.3818
1334669370638,56.2948
1334669430638,56.3865
1334669490638,56.2781
1334669550638,56.3570
1334669610638,56.4121
1334669670638,56.3413
1334669730638,56.3811
1334669790638,56.3691
1334669850638,56.1451
1334669910638,56.3831
1334669970638,56.2378
1334670030638,56.3274
1334670090638,56.2744
1334670150638,56.3595
1334670210638,56.1990
1334670270638,56.3993
1334670330638,56.3462
1334670390638,56.3270
1334670450638,56.3341
1334670510638,56.2189
1334670570638,56.4113
1334670630638,56.2683
1334670690638,56.4801
1334670750638,56.2302
1334670810638,56.4059
1334670870638,56.3964
1334670930638,56.3032
1334670990638,56.2420
1334671050638,56.3295
1334671110638,56.4598
1334671170638,56.3458
1334671230649,56.4132
1334671290649,56.4961
1334671350649,56.4746
1334671410649,56.4625
1334671470649,56.4963
1334671530649,56.6259
1334671590649,56.1832
1334671650649,56.5051
1334671710649,56.4597
1334671770649,56.4957
1334671830649,56.4391
1334671890649,56.3967
1334671950649,56.3585
1334672010649,56.5868
1334672070649,56.5564
1334672130649,56.4494
1334672190649,56.5318
1334672250649,56.4201
1334672310649,56.6164
1334672370649,56.5192
1334672430649,56.5053
1334672490649,56.5689
1334672550649,56.3781
1334672610649,56.5003
1334672670649,56.6754
1334672730649,56.6666
1334672790649,56.7024
1334672850649,56.6387
1334672910649,56.6905
1334672970649,56.5845
1334673030649,56.7097
1334673090649,56.8315
1334673150649,56.7186
1334673210649,56.8063
1334673270649,56.6280
1334673330649,56.6330
1334673390649,56.7034
1334673450649,56.7585
1334673510649,56.7544
1334673570649,56.7736
1334673630649,56.6861
1334673690649,56.7432
1334673750649,56.8079
1334673810649,56.8597
1334673870649,56.8621
1334673930649,56.8587
1334673990649,56.8645
1334674050649,56.7089
1334674110649,56.8556
1334674170649,56.8715
1334674230649,56.7780
1334674290649,56.7525
1334674350649,56.8975
1334674410649,56.8015
1334674470649,56.8447
1334674530649,56.8471
1334674590649,56.8538
1334674650649,56.7785
1334674710649,56.8489
1334674770649,56.9363
1334674830659,56.8003
1334674890659,56.9657
1334674950659,56.9835
1334675010659,57.0016
1334675070659,56.8269
1334675130659,57.1514
1334675190659,57.0085
1334675250659,56.9043
1334675310659,56.7796
1334675370659,56.8447
1334675430659,56.9381
1334675490659,56.9606
1334675550659,57.0531
1334675610659,56.9241
1334675670659,57.1051
1334675730659,56.8384
1334675790659,57.0054
1334675850659,56.8655
1334675910659,57.1750
1334675970659,56.8504
1334676030659,57.1073
1334676090659,57.0732
1334676150659,57.2014
1334676210659,56.9816
1334676270659,56.9764
1334676330659,56.9974
1334676390659,57.0952
1334676450659,57.1517
1334676510659,57.0589
1334676570659,57.0615
1334676630659,56.9520
1334676690659,57.3312
1334676750659,57.1813
1334676810659,56.9232
1334676870659,57.0529
1334676930659,56.9928
1334676990659,56.9362
1334677050659,56.8676
1334677110659,56.9109
1334677170659,56.9615
1334677230659,56.9594
1334677290659,56.8864
1334677350659,56.9833
1334677410659,57.1212
1334677470659,57.0391
1334677530659,57.1109
1334677590659,57.2669
1334677650659,57.1240
1334677710659,57.1018
1334677770659,57.1431
1334677830659,57.0036
1334677890659,56.9952
1334677950659,57.0314
1334678010659,57.0998
1334678070659,57.0125
1334678130659,57.0759
1334678190659,56.9085
1334678250659,57.0663
1334678310659,56.9365
1334678370659,56.9953
1334678430669,57.0618
1334678490669,57.0314
1334678550669,57.0476
1334678610669,56.9375
1334678670669,57.0509
1334678730669,56.9438
1334678790669,57.1781
1334678850669,57.1494
1334678910669,57.1958
1334678970669,57.1188
1334679030669,57.2466
1334679090669,57.1332
1334679150669,57.1021
1334679210669,56.9949
1334679270669,57.1686
1334679330669,57.1982
1334679390669,57.2681
1334679450669,57.0336
1334679510669,57.1323
1334679570669,57.1343
1334679630669,57.1351
1334679690669,56.9936
1334679750669,57.1948
1334679810669,57.1389
1334679870669,57.0990
1334679930669,57.0361
1334679990669,57.1295
1334680050669,57.0674
1334680110669,57.1776
1334680170669,57.2491
1334680230669,57.0447
1334680290669,57.2428
1334680350669,57.1195
1334680410669,57.0799
1334680470669,57.1030
1334680530669,57.0632
1334680590669,57.2046
1334680650669,57.3166
1334680710669,57.1252
1334680770669,57.3348
1334680830669,57.2363
1334680890669,57.3704
1334680950669,57.2709
1334681010669,57.3429
1334681070669,57.2900
1334681130669,57.3673
1334681190669,57.4310
1334681250669,57.3251
1334681310669,57.2764
1334681370669,57.4913
1334681430669,57.4044
1334681490669,57.5401
1334681550669,57.3907
1334681610669,57.5016
1334681670669,57.3929
1334681730669,57.5096
1334681790669,57.6693
1334681850669,57.3910
1334681910669,57.4381
1334681970669,57.4726
1334682030679,57.3613
1334682090679,57.5769
1334682150679,57.3467
1334682210679,57.5238
1334682270679,57.4160
1334682330679,57.4469
1334682390679,57.5103
1334682450679,57.3671
1334682510679,57.3712
1334682570679,57.5000
1334682630679,57.4546
1334682690679,57.5520
1334682750679,57.4636
1334682810679,57.6465
1334682870679,57.5994
1334682930679,57.4645
1334682990679,57.4035
1334683050679,57.4520
1334683110679,57.4152
1334683170679,57.6047
1334683230679,57.5283
1334683290679,57.4630
1334683350679,57.5426
1334683410679,57.4870
1334683470679,57.3976
1334683530679,57.4933
1334683590679,57.5578
1334683650679,57.4797
1334683710679,57.3866
1334683770679,57.2808
1334683830679,57.4205
1334683890679,57.4340
1334683950679,57.4503
1334684010679,57.4882
1334684070679,57.3766
1334684130679,57.4641
1334684190679,57.3627
1334684250679,57.6702
1334684310679,57.6842
1334684370679,57.4911
1334684430679,57.3839
1334684490679,57.4218
1334684550679,57.5063
1334684610679,57.6000
1334684670679,57.4720
1334684730679,57.7254
1334684790679,57.5573
1334684850679,57.5486
1334684910679,57.6015
1334684970679,57.5583
1334685030679,57.5610
1334685090679,57.5729
1334685150679,57.5399
1334685210679,57.5539
1334685270679,57.5829
1334685330679,57.5867
1334685390679,57.6430
1334685450679,57.6547
1334685510679,57.5250
1334685570679,57.5000
1334685630689,57.6333
1334685690689,57.6795
1334685750689,57.5844
1334685810689,57.5973
1334685870689,57.6751
1334685930689,57.6148
1334685990689,57.6620
1334686050689,57.6400
1334686110689,57.6493
1334686170689,57.5532
1334686230689,57.6216
1334686290689,57.6404
1334686350689,57.6556
1334686410689,57.7085
1334686470689,57.6648
1334686530689,57.5465
1334686590689,57.6504
1334686650689,57.6828